Kuchera_Ratio
0.0 0.0 0.0 0.0 0.0 0.0 0.0 0.0 0.0 0.0 0.0 0.0 0.0 0.0 0.0 0.0 0.0 0.0 0.0 0.0 0.0 0.0 0.0 0.0 0.0 0.0 0.0 0.0 0.0 0.0 0.0 0.0 0.0 0.0 0.0 0.0 0.0 0.0 0.0 0.0 0.0 0.0 0.0 0.0
0.0 0.0 0.0 0.0 0.0 0.0 0.0 0.0 0.0 0.0 0.0 0.0 0.0 0.0 0.0 0.0 0.0 0.0 0.0 0.0 0.0 0.0 0.0 0.0 0.0 0.0 0.0 0.0 0.0 0.0 0.0 0.0 0.0 0.0 0.0 0.0 0.0 0.0 0.0 0.0 0.0 0.0 0.0 0.0
0.0 0.0 0.0 0.0 0.0 0.0 0.0 0.0 0.0 0.0 0.0 0.0 0.0 0.0 0.0 0.0 0.0 0.0 0.0 0.0 0.0 0.0 0.0 0.0 0.0 0.0 0.0 0.0 0.0 0.0 0.0 0.0 0.0 0.0 0.0 0.0 0.0 0.0 0.0 0.0 0.0 0.0 0.0 0.0
0.0 0.0 0.0 0.0 0.0 0.0 0.0 0.0 0.0 0.0 0.0 3.5 0.0 6.1 0.0 0.0 0.0 0.0 0.0 0.0 0.0 0.0 0.0 0.0 0.0 0.0 0.0 0.0 0.0 0.0 0.0 0.0 0.0 0.0 0.0 0.0 0.0 0.0 0.0 0.0 0.0 0.0 0.0 0.0
0.0 0.0 0.0 0.0 0.0 0.0 0.0 0.0 0.0 0.0 0.0 0.0 0.0 4.8 0.0 0.0 0.0 0.0 0.0 0.0 0.0 0.0 0.0 0.0 0.0 0.0 0.0 0.0 0.0 0.5 0.0 0.0 0.0 0.0 0.0 0.0 0.0 0.0 0.0 0.4 1.0 1.8 1.6 1.7
0.0 0.0 0.0 0.0 0.0 0.0 0.0 0.0 0.0 0.0 0.1 10.6 1.8 5.2 4.7 0.0 0.0 0.0 0.0 0.0 0.0 0.0 0.0 0.0 0.0 0.0 0.0 0.0 0.2 0.8 0.0 0.0 0.0 1.0 0.0 0.0 0.0 0.7 0.9 1.5 2.0 2.7 2.8 3.5
0.0 0.0 0.0 0.0 0.0 0.0 0.0 0.0 8.2 13.7 13.9 13.1 0.0 7.6 0.1 0.0 0.0 0.0 0.0 0.0 0.0 0.0 0.0 0.0 0.0 0.0 0.0 0.0 0.0 0.7 1.1 0.9 1.2 1.1 0.8 0.8 1.5 1.6 2.4 2.3 3.1 4.0 4.2 3.6
6.8 5.9 0.0 0.0 0.0 0.0 0.0 0.0 7.8 13.9 14.0 12.3 1.0 7.4 0.3 0.0 0.0 0.0 0.0 0.0 0.0 0.0 0.0 0.0 0.0 0.0 0.0 0.0 0.4 2.8 3.4 3.2 2.3 1.8 2.7 2.5 2.3 2.9 3.3 3.8 4.4 5.0 5.5 6.4
4.1 1.4 0.0 0.0 0.0 0.0 0.0 0.8 0.0 4.6 8.6 11.3 7.8 1.4 0.0 0.0 0.0 0.0 0.0 0.0 0.0 0.0 0.0 0.0 0.0 0.0 0.0 0.4 1.3 1.8 2.4 2.9 2.2 3.6 3.2 3.2 3.9 4.2 4.6 5.6 6.6 8.1 8.5 8.8
0.0 7.6 0.0 0.0 0.0 0.0 0.0 0.0 6.6 4.4 14.6 15.3 10.6 8.6 6.8 0.0 0.0 0.0 0.0 0.0 0.0 0.0 0.0 0.0 0.0 0.0 0.3 1.5 3.3 4.0 5.1 5.0 5.2 4.9 4.5 4.6 4.8 5.8 7.4 8.4 9.3 9.8 9.9 9.8
0.0 0.0 0.8 0.0 0.0 0.0 0.0 0.0 0.3 1.7 9.0 15.1 16.0 10.0 0.0 0.0 0.0 0.0 0.0 0.0 0.0 0.0 0.0 0.0 0.0 0.7 2.0 2.4 4.0 6.0 6.1 5.7 5.6 6.3 5.9 5.8 6.5 8.4 9.7 10.7 10.6 10.7 10.4 10.7
0.0 1.6 9.7 0.9 0.0 0.0 0.0 1.2 0.8 10.8 11.7 11.2 13.1 12.0 0.0 0.0 0.0 0.0 0.0 0.0 0.0 0.0 0.0 0.0 0.0 1.1 2.1 3.8 5.7 5.3 6.0 6.9 7.5 7.9 7.9 8.3 9.0 10.3 11.4 11.6 11.4 11.1 11.5 11.8
0.0 4.3 11.7 10.4 3.7 0.0 2.4 0.0 0.0 5.2 8.4 13.1 15.3 12.5 0.0 0.0 0.0 0.0 0.0 0.0 0.0 0.0 0.0 0.0 0.0 1.4 3.3 5.7 5.5 6.2 7.4 8.6 8.9 9.1 9.1 9.9 10.5 11.8 12.4 12.4 12.1 11.8 12.1 12.4
0.0 4.9 6.3 12.9 9.2 2.8 4.6 4.0 0.6 5.8 14.3 13.9 12.9 7.0 0.0 0.0 0.0 0.0 0.0 0.0 0.0 0.0 0.0 0.0 0.0 2.0 4.8 6.2 6.5 7.3 8.4 8.2 9.8 10.2 10.9 11.3 11.9 12.5 12.7 12.7 12.5 12.6 12.9 13.1
0.0 6.9 6.3 5.9 5.0 5.4 6.0 6.3 6.0 9.2 7.2 13.0 7.6 7.7 0.0 0.0 0.0 0.0 0.0 0.0 0.0 0.0 0.0 0.0 0.0 0.0 5.5 7.3 8.0 7.2 6.8 7.4 6.8 9.0 10.8 12.1 12.5 12.6 12.6 13.0 13.2 13.3 13.1 13.4
0.5 8.5 9.0 10.1 7.6 7.4 9.7 9.0 9.1 6.0 5.4 7.2 6.2 7.6 0.0 0.0 0.0 0.0 0.0 0.0 0.0 0.0 0.0 0.0 0.0 3.8 6.3 7.2 7.0 5.6 5.6 5.6 5.0 9.6 10.2 10.8 11.4 12.1 12.8 13.0 13.2 13.4 13.9 14.0
2.7 7.6 11.9 13.5 9.4 8.6 13.4 10.2 7.6 6.0 3.7 3.6 11.2 2.2 0.0 0.0 0.0 0.0 0.0 0.0 0.0 0.0 0.0 0.0 0.0 2.5 5.9 6.0 5.2 5.8 5.0 4.8 7.0 9.6 10.0 10.8 11.2 12.2 12.7 12.8 13.2 13.8 14.5 14.3
4.2 7.6 9.0 14.5 11.2 19.0 9.1 0.6 0.2 3.8 2.4 0.9 1.0 0.0 0.0 0.0 0.0 0.0 0.0 0.0 0.0 0.0 0.0 0.0 0.0 2.2 6.6 4.6 5.2 5.8 5.8 6.2 8.8 9.6 10.8 10.8 11.4 12.3 12.6 13.1 13.9 14.3 14.4 15.0
0.0 4.9 11.8 14.2 14.2 10.2 5.6 0.3 2.2 7.6 5.4 0.0 0.0 0.0 0.0 0.0 0.0 0.0 0.0 0.0 0.0 0.0 0.0 0.1 2.3 4.7 7.4 7.0 7.6 7.8 8.2 9.2 9.4 10.6 11.0 11.0 11.2 12.5 12.8 13.7 14.5 14.5 14.9 15.1
1.4 3.4 9.4 14.0 15.8 18.7 8.2 0.0 0.0 0.0 10.1 0.0 0.0 0.0 0.1 0.0 6.0 0.0 0.0 0.0 0.0 0.0 0.0 0.3 2.6 5.6 8.6 9.0 7.4 9.2 10.1 10.2 10.7 10.8 10.6 10.8 11.0 12.2 13.6 13.8 14.2 14.0 14.3 13.2
11.2 13.3 14.1 13.4 14.5 12.5 1.0 0.0 0.0 12.7 10.9 0.0 0.0 0.0 0.0 0.0 0.0 0.0 0.0 0.0 0.0 0.0 0.0 1.9 3.9 5.3 8.1 7.8 7.6 10.1 10.4 10.2 9.3 9.8 10.4 10.6 11.6 12.3 13.1 13.7 13.9 14.5 15.0 16.3
11.0 13.8 14.1 13.2 14.9 16.4 0.0 0.0 8.0 3.7 0.0 0.0 0.0 0.0 0.0 0.0 0.0 0.0 0.0 0.0 0.0 0.2 2.5 4.2 5.4 7.3 9.0 7.8 8.0 10.0 10.6 9.3 9.7 10.4 10.8 12.0 12.3 10.6 12.6 14.1 14.0 13.7 16.5 17.3
12.8 7.3 11.8 12.1 10.2 0.0 0.0 0.0 0.0 0.0 0.0 0.0 0.0 0.0 0.0 0.0 0.0 0.0 0.0 0.1 1.3 2.3 3.9 5.5 6.0 8.0 9.2 8.6 7.3 9.1 9.6 9.9 10.6 11.0 12.1 12.4 11.4 11.8 12.5 14.0 14.7 14.4 16.2 17.4
3.4 0.6 7.8 8.0 3.0 1.9 0.0 0.0 0.0 0.0 0.0 0.0 0.0 0.0 0.0 0.0 0.0 0.0 0.0 1.3 2.7 4.4 5.3 6.3 7.1 8.7 9.6 8.6 7.3 5.5 8.9 9.8 10.4 11.6 12.3 12.4 12.9 13.5 13.5 12.9 13.6 15.1 16.0 17.2
4.4 3.0 6.4 8.5 3.2 0.0 0.0 0.0 0.0 0.0 0.0 0.0 0.0 0.0 0.0 0.0 0.0 0.0 0.1 2.5 3.5 4.7 6.4 6.3 6.3 7.2 8.1 8.6 8.3 7.9 9.0 10.0 10.8 11.2 11.6 12.5 12.9 13.5 14.1 14.1 14.2 14.7 14.7 15.1
2.4 6.0 9.2 12.2 0.0 0.0 0.0 0.0 0.0 0.0 0.0 0.0 0.0 0.0 0.0 0.0 0.0 0.0 0.8 2.8 4.1 5.7 6.2 7.3 6.7 6.4 7.4 8.1 8.3 8.3 8.7 9.8 10.6 11.6 12.5 13.5 13.7 14.3 14.5 14.8 15.4 12.9 14.8 13.1